Weather History for Clarksville, TX

Change the Weather History Date:

Thursday, March 6, 2014

  Actual Average (KPRX) Record (KPRX)
Temperature  
Mean Temperature 50 °F -  
Max Temperature 59 °F 59 °F 80 °F (2009)
Min Temperature 40 °F 40 °F 26 °F (2003)
Degree Days  
Heating Degree Days 16    
Moisture  
Dew Point 34 °F    
Average Humidity 62    
Maximum Humidity 84    
Minimum Humidity 36    
Precipitation  
Precipitation 0.00 in - - ()
Sea Level Pressure  
Sea Level Pressure 30.13 in    
Wind  
Wind Speed 2 mph (NW)    
Max Wind Speed 10 mph    
Max Gust Speed 18 mph    
Visibility 9 miles    
Events      
Averages and records for this station are not official NWS values.
T = Trace of Precipitation, MM = Missing Value Source: NWS Daily Summary

Daily Weather History Graph

Daily Weather History Graph

Search for Another Location

Airport:

Trip Planner

Search our weather history database for the weather conditions in past years. The results will help you decide how hot, cold, wet, or windy it might be!

Date:

Astronomy

Mar. 06, 2014 Rise Set
Actual Time 6:42 AM CST 6:21 PM CST
Civil Twilight 6:17 AM CST 6:45 PM CST
Nautical Twilight 5:48 AM CST 7:14 PM CST
Astronomical Twilight 5:19 AM CST 7:43 PM CST
Moon 10:07 AM CST (3/6) No Moon Set
Length of Visible Light 12h 28m
Length of Day
11h 38m
Waxing Crescent, 32% of the Moon is Illuminated
Mar 6
Waxing Crescent
Mar 8
First Quarter
Mar 16
Full
Mar 23
Last Quarter
Mar 30
New

Hourly Weather History & Observations

Time (CST) Temp. Windchill Dew Point Humidity Pressure Visibility Wind Dir Wind Speed Gust Speed Precip Events Conditions
12:15 AM 40.1 °F - 35.6 °F 84% 30.17 in 10.0 mi Calm Calm - N/A   Clear
12:35 AM 41.0 °F - 35.6 °F 81% 30.17 in 10.0 mi Calm Calm - N/A   Clear
12:55 AM 41.4 °F - 35.6 °F 80% 30.18 in 10.0 mi Calm Calm - N/A   Clear
1:20 AM 41.0 °F - 34.7 °F 78% 30.18 in 10.0 mi Calm Calm - N/A   Clear
1:35 AM 41.0 °F - 34.0 °F 76% 30.17 in 10.0 mi Calm Calm - N/A   Clear
1:55 AM 41.2 °F - 34.7 °F 78% 30.15 in 10.0 mi Calm Calm - N/A   Clear
2:15 AM 41.0 °F - 34.9 °F 79% 30.15 in 7.0 mi Calm Calm - N/A   Clear
2:35 AM 40.6 °F - 34.7 °F 79% 30.15 in 10.0 mi Calm Calm - N/A   Clear
2:55 AM 40.8 °F - 32.7 °F 73% 30.14 in 10.0 mi Calm Calm - N/A   Scattered Clouds
3:15 AM 41.0 °F - 30.9 °F 67% 30.13 in 10.0 mi Calm Calm - N/A   Scattered Clouds
3:35 AM 41.4 °F 39.4 °F 30.0 °F 64% 30.13 in 10.0 mi NW 3.5 mph - N/A   Mostly Cloudy
3:55 AM 41.4 °F - 29.8 °F 64% 30.13 in 10.0 mi Calm Calm - N/A   Overcast
4:15 AM 41.9 °F - 31.1 °F 66% 30.13 in 10.0 mi Calm Calm - N/A   Overcast
4:35 AM 41.9 °F - 31.6 °F 67% 30.13 in 10.0 mi Calm Calm - N/A   Overcast
4:55 AM 41.5 °F 38.6 °F 32.2 °F 69% 30.13 in 10.0 mi NW 4.6 mph - N/A   Overcast
5:15 AM 41.4 °F 38.4 °F 32.9 °F 72% 30.13 in 10.0 mi NW 4.6 mph - N/A   Overcast
5:35 AM 41.2 °F - 33.3 °F 73% 30.14 in 7.0 mi Calm Calm - N/A   Overcast
5:55 AM 41.0 °F 38.0 °F 33.8 °F 76% 30.15 in 7.0 mi NW 4.6 mph - N/A   Overcast
6:15 AM 41.0 °F - 33.8 °F 76% 30.15 in 10.0 mi Calm Calm - N/A   Overcast
6:35 AM 40.5 °F - 34.2 °F 78% 30.16 in 7.0 mi Calm Calm - N/A   Mostly Cloudy
6:55 AM 40.1 °F - 34.2 °F 79% 30.16 in 10.0 mi Calm Calm - N/A   Overcast
7:15 AM 40.1 °F 36.9 °F 34.2 °F 79% 30.17 in 7.0 mi WNW 4.6 mph - N/A   Overcast
7:35 AM 40.5 °F 35.1 °F 34.3 °F 79% 30.18 in 7.0 mi NW 8.1 mph - N/A   Mostly Cloudy
7:55 AM 40.1 °F 36.9 °F 34.2 °F 79% 30.19 in 7.0 mi WNW 4.6 mph - N/A   Scattered Clouds
8:15 AM 41.0 °F - 34.9 °F 79% 30.19 in 7.0 mi Calm Calm - N/A   Scattered Clouds
8:35 AM 42.8 °F 38.0 °F 34.7 °F 73% 30.20 in 10.0 mi NW 8.1 mph - N/A   Scattered Clouds
8:55 AM 44.4 °F 39.0 °F 34.9 °F 69% 30.21 in 10.0 mi NW 10.4 mph 16.1 mph N/A   Clear
9:15 AM 45.7 °F 40.6 °F 34.5 °F 65% 30.21 in 10.0 mi NW 10.4 mph 18.4 mph N/A   Clear
9:35 AM 46.6 °F - 34.7 °F 63% 30.21 in 10.0 mi NW 10.4 mph - N/A   Clear
9:55 AM 47.7 °F - 34.7 °F 61% 30.21 in 10.0 mi WNW 5.8 mph - N/A   Clear
10:15 AM 48.6 °F - 34.9 °F 59% 30.21 in 10.0 mi WNW 9.2 mph 16.1 mph N/A   Clear
10:35 AM 48.4 °F - 35.1 °F 60% 30.21 in 7.0 mi NW 8.1 mph - N/A   Clear
10:55 AM 49.6 °F - 34.9 °F 57% 30.20 in 10.0 mi WNW 9.2 mph - N/A   Clear
11:15 AM 50.2 °F - 34.7 °F 55% 30.20 in 10.0 mi NW 9.2 mph - N/A   Clear
11:35 AM 51.3 °F - 35.1 °F 54% 30.19 in 7.0 mi NNW 6.9 mph - N/A   Clear
11:55 AM 52.9 °F - 33.6 °F 48% 30.18 in 10.0 mi North 3.5 mph - N/A   Clear
12:15 PM 53.6 °F - 33.8 °F 47% 30.17 in 10.0 mi North 9.2 mph - N/A   Clear
12:35 PM 54.3 °F - 33.4 °F 45% 30.16 in 10.0 mi WNW 4.6 mph - N/A   Clear
12:55 PM 55.6 °F - 33.1 °F 43% 30.14 in 7.0 mi North 5.8 mph - N/A   Clear
1:15 PM 56.5 °F - 33.4 °F 42% 30.14 in 10.0 mi Calm Calm - N/A   Clear
1:35 PM 56.7 °F - 33.8 °F 42% 30.12 in 10.0 mi Calm Calm - N/A   Clear
1:55 PM 57.7 °F - 32.2 °F 38% 30.11 in 10.0 mi Calm Calm - N/A   Clear
2:15 PM 57.6 °F - 32.7 °F 39% 30.11 in 10.0 mi Calm Calm - N/A   Clear
2:35 PM 58.3 °F - 32.7 °F 38% 30.11 in 10.0 mi WNW 5.8 mph - N/A   Clear
2:55 PM 59.0 °F - 32.7 °F 37% 30.10 in 10.0 mi WSW 3.5 mph - N/A   Clear
3:15 PM 59.4 °F - 34.3 °F 39% 30.10 in 10.0 mi WNW 4.6 mph - N/A   Clear
3:35 PM 58.6 °F - 32.4 °F 37% 30.10 in 7.0 mi Calm Calm - N/A   Clear
3:55 PM 59.0 °F - 32.2 °F 36% 30.09 in 10.0 mi West 5.8 mph - N/A   Clear
4:15 PM 59.0 °F - 31.8 °F 36% 30.08 in 7.0 mi WSW 4.6 mph - N/A   Clear
4:35 PM 59.0 °F - 32.2 °F 36% 30.08 in 10.0 mi West 5.8 mph - N/A   Clear
4:55 PM 58.3 °F - 32.0 °F 37% 30.08 in 7.0 mi Calm Calm - N/A   Clear
5:15 PM 58.1 °F - 32.0 °F 37% 30.08 in 7.0 mi Calm Calm - N/A   Clear
5:35 PM 57.6 °F - 32.0 °F 38% 30.07 in 10.0 mi Calm Calm - N/A   Clear
5:55 PM 56.1 °F - 34.3 °F 44% 30.06 in 10.0 mi Calm Calm - N/A   Clear
6:15 PM 54.7 °F - 34.9 °F 47% 30.06 in 7.0 mi Calm Calm - N/A   Clear
6:35 PM 52.5 °F - 34.9 °F 51% 30.06 in 10.0 mi Calm Calm - N/A   Clear
6:55 PM 51.1 °F - 35.4 °F 55% 30.06 in 10.0 mi Calm Calm - N/A   Clear
7:15 PM 50.2 °F - 35.1 °F 56% 30.06 in 10.0 mi Calm Calm - N/A   Clear
7:35 PM 48.2 °F - 34.7 °F 60% 30.06 in 10.0 mi Calm Calm - N/A   Clear
7:55 PM 47.7 °F - 34.9 °F 61% 30.06 in 10.0 mi Calm Calm - N/A   Clear
8:15 PM 47.3 °F - 35.1 °F 62% 30.06 in 10.0 mi Calm Calm - N/A   Clear
8:35 PM 47.3 °F - 34.9 °F 62% 30.06 in 10.0 mi Calm Calm - N/A   Clear
8:55 PM 44.6 °F - 34.7 °F 68% 30.07 in 10.0 mi Calm Calm - N/A   Clear
9:15 PM 43.7 °F - 34.7 °F 71% 30.06 in 10.0 mi Calm Calm - N/A   Clear
9:35 PM 42.6 °F - 34.3 °F 73% 30.07 in 10.0 mi Calm Calm - N/A   Clear
9:55 PM 41.4 °F - 34.9 °F 78% 30.08 in 10.0 mi Calm Calm - N/A   Clear
10:15 PM 41.7 °F - 35.1 °F 77% 30.09 in 10.0 mi Calm Calm - N/A   Clear
10:35 PM 41.4 °F - 35.1 °F 78% 30.09 in 10.0 mi Calm Calm - N/A   Clear
10:55 PM 42.3 °F - 35.6 °F 77% 30.09 in 7.0 mi Calm Calm - N/A   Clear
11:15 PM 41.9 °F - 35.6 °F 78% 30.09 in 10.0 mi Calm Calm - N/A   Clear
11:40 PM 41.5 °F - 35.6 °F 79% 30.08 in 10.0 mi Calm Calm - N/A   Clear
11:55 PM 41.9 °F - 35.6 °F 78% 30.08 in 7.0 mi Calm Calm - N/A   Clear